Погода в Виареджо

Италия     43°52′52″N   10°14′06″E
темп.,
°C
ветер,
м/с
пор.,
м/с
влажн.,
%
обл.,
%
осадки,
мм/ч
давл.,
гПа
погр.,
м
6 марта, сб
сб601:00+7св227553 0.0 102036
04:00+7св22731 0.0 102137
07:00+7св227825 0.0 102447
10:00+10св245954 0.0 1026637
13:00+11ссв125072 0.0 1027763
16:00+11вюв125382 0.0 1027972
19:00+7всв236861 0.0 1027276
22:00+5св22632 0.0 1028112
7 марта, вс
вс701:00+5св22531 0.0 102888
04:00+4св22510 0.0 102767
07:00+5св225116 0.0 102657
10:00+10ю114071 0.0 1025353
13:00+12ююз224340 0.0 1024696
16:00+11ююз225345 0.0 1021661
19:00+8всв117072 0.0 1020148
22:00+8всв1273100 0.0 102060
8 марта, пн
пн801:00+9св1271100 0.0 101995
04:00+7св1177100 0.0 101738
07:00+6св227698 0.0 101741
10:00+12ююв115553 0.0 1017596
13:00+13юз215546 0.1 1016971
16:00+11юз116384 0.2 1015780
19:00+10в126791 0.3 1015348
22:00+8св227097 0.0 1016182
9 марта, вт
вт901:00+6св227251 0.0 101689
04:00+6св22750 0.0 101681
07:00+6ссв22740 0.0 101660
10:00+11зюз01526 0.0 1016584
13:00+12юз215223 0.1 10161075
16:00+12зюз115680 0.1 1015929
19:00+9с117074 0.3 1016176
22:00+7св227421 0.0 1018105
10 марта, ср
ср1001:00+6св226937 0.0 1019113
04:00+5св22710 0.0 101985
07:00+5св22680 0.0 102180
10:00+11юз11430 0.0 1022567
13:00+12юз22440 0.0 1022967
16:00+11юз22510 0.0 1021587
19:00+9зсз12600 0.0 1022173
22:00+8с11610 0.0 102456